{"data":{"norad_id":55808,"epoch":"2026-09-20T00:23:15.614016Z","epoch_age_seconds":63769,"freshness":"FRESH","line1":"1 55808U 23029N   26263.01615294  .00000202  00000+0  47269-3 0  9993","line2":"2 55808  87.9100 286.0811 0001691  83.2718 276.8607 13.19726305171412","mean_motion":13.19726305,"eccentricity":0.0001691,"inclination_deg":87.91,"raan_deg":286.0811,"arg_perigee_deg":83.2718,"mean_anomaly_deg":276.8607,"bstar":0.00047269,"rev_number":17141,"period_min":109.11353320339,"perigee_km":1184.4865097365,"apogee_km":1187.0446215842,"semimajor_km":7563.9025656604,"source":"CELESTRAK","updated_at":"2026-09-20T09:00:44.761386Z"}}